Location: Colle Pacifico
(43.5333°N, 13.3167°E)
Time: 22:54:11
(UTC+00:00)

IRS-1D - Pass Details

Date: 07 June 2020
Orbit: 740 x 817 km, 98.6° (Epoch: 14 July)

Event Time Altitude Azimuth Distance (km) Brightness Sun altitude
Rises 01:06:42 0° 16° (NNE) 3,327 8.3 -18.1°
Reaches altitude 10° 01:09:06 10° 20° (NNE) 2,382 7.3 -17.9°
Maximum altitude 01:14:19 64° 101° (ESE) 872 3.8 -17.4°
Enters shadow 01:17:31 23° 178° (S) 1,606 4.7 -17.1°
